Location: Newark
(7.0858°N, 171.3717°E)
Time: 16:01:52
(UTC+00:00)

Altair - Pass Details

Date: 28 November 2020
Orbit: 1501 x 1682 km, 47.2° (Epoch: 20 January)

Event Time Altitude Azimuth Distance (km) Brightness Sun altitude
Exits shadow 17:17:42 15° 326° (NW) 3,302 8.8 -17.7°
Maximum altitude 17:25:47 76° 50° (NE) 1,604 7.6 -15.8°
Drops below altitude 10° 17:35:28 10° 135° (SE) 3,824 10.7 -13.5°
Sets 17:38:38 0° 136° (SE) 4,835 11.4 -12.8°
